Showing default

COSMOS 2043, 20237

Orbit data source: Space-Track

COSMOS 2043, 20237 is a payload satellite owned by UNKS (CIS) in LEO that was launched on Thu, 14 Sep 1989 UTC via a TSIKLON-3 launch vehicle from the Plesetsk Missile And Space Complex (PKMTR). Payload-class satellites include a variety of spacecraft equipped with specific instruments for various scientific and technological missions. These include communications satellites like Starlink; space stations such as the ISS; scientific satellites like the Hubble; Earth observation satellites from companies like Planet Labs, Umbra, and HawkEye 360; GPS; miniature CubeSats for education and research; and military/defense satellites.

Loading next visibility...
Identifier
20237, 1989-074F
Orbit
LEO
Country
Flag of CISCIS
Related business
Manufacturer
NPO PM
Mission
Defense Communications
Bus & Motor
STRELA-3, Unknown motor
Mass
225 kg wet, 225 kg dry
Launch date (UTC)
1989-09-14 (37 years ago)
Launch vehicle
TSIKLON-3
Launch site
Plesetsk Missile And Space Complex (PKMTR)
Object type
Payload
Rocket body
Debris
Shape & HBR
Cyl + 1 Ant, 3.5 m
Radar Cross Section
1.583 m², Large (>1 m²)

Expand to show TLE details & history
Last TLE update: 18 hours ago

TLE from 18 hours ago
0 COSMOS 2043
1 20237U 89074F   26121.91905774  .00000014  00000-0  19194-4 0  9999
2 20237  82.5753 252.7284 0003116 340.9838 146.5180 12.63551216689057
Epoch: 2026-05-01T22:03Z
TLE epoch observation values (Epoch: 2026-05-01T22:03:26.588Z)
Latitude
51.94931°
Longitude
-127.513°
Altitude
1,418.679 km
Speed
7.155 km/s
True Right ascension
04h 12m 46s
True Declination
51° 47' 47"
Sunlit
Object was in daylight at epoch
Visualization orbit readout
Latitude
Unknown
Longitude
Unknown
Altitude
Unknown
Speed
Unknown
Apparent Right ascension
Unknown
Apparent Declination
Unknown
Sunlit
N/A
Visualization observer readout
Local Sidereal Time
23:21:20
Azimuth
Unknown
Elevation
Unknown
Doppler factor
Unknown
Orbital elements
Apogee altitude
1,408.065 km
Perigee altitude
1,403.215 km
Semi-major axis
7,783.777 km
Eccentricity
0.00031
Inclination
82.5753°
RAAN
252.7284°
Arg. of periapsis
340.9838°
True anomaly
146.53769°
Mean anomaly
146.518°
Eccentric anomaly
146.52785°
Mean motion
3.16051 °/min
Orbital period
113.91 mins
BSTAR
0.000019194
Loading maneuver chart data...
Computing Atmospheric mass density...
Loading historical data...
Loading historical data...
Loading historical data...
Loading historical data...
Loading historical data...
Loading historical data...
Loading historical data...

Documentation

Showing up to 5 results
|